Time,TemperatureF,DewpointF,PressureIn,WindDirection,WindDirectionDegrees,WindSpeedMPH,WindSpeedGustMPH,Humidity,HourlyPrecipIn,Conditions,Clouds,dailyrainin,SolarRadiationWatts/m^2,SoftwareType,DateUTC
2013-05-01 00:03:00,69.3,23.9,29.78,North,5,0.0,9.0,18,0.00,,,0.00,0.0,meteohub,2013-05-01 07:03:00,
2013-05-01 00:08:00,69.3,23.9,29.78,North,0,1.0,9.0,18,0.00,,,0.00,0.0,meteohub,2013-05-01 07:08:00,
2013-05-01 00:13:00,69.3,22.6,29.78,North,355,3.0,9.0,17,0.00,,,0.00,0.0,meteohub,2013-05-01 07:13:00,
2013-05-01 00:18:00,69.1,22.5,29.78,NE,40,4.0,9.0,17,0.00,,,0.00,0.0,meteohub,2013-05-01 07:18:00,
2013-05-01 00:23:00,68.9,23.7,29.78,NNW,338,0.0,10.0,18,0.00,,,0.00,0.0,meteohub,2013-05-01 07:23:00,
2013-05-01 00:28:00,68.7,23.5,29.78,East,100,2.0,10.0,18,0.00,,,0.00,0.0,meteohub,2013-05-01 07:28:00,
2013-05-01 00:33:00,68.5,23.4,29.78,NNE,16,2.0,10.0,18,0.00,,,0.00,0.0,meteohub,2013-05-01 07:33:00,
2013-05-01 00:38:00,68.4,23.2,29.78,SSE,151,1.0,10.0,18,0.00,,,0.00,0.0,meteohub,2013-05-01 07:38:00,
2013-05-01 00:43:00,68.2,24.3,29.78,South,190,0.0,10.0,19,0.00,,,0.00,0.0,meteohub,2013-05-01 07:43:00,
2013-05-01 00:48:00,68.2,23.0,29.78,NW,320,4.0,10.0,18,0.00,,,0.00,0.0,meteohub,2013-05-01 07:48:00,
2013-05-01 00:53:00,68.2,23.0,29.78,SE,144,1.0,6.0,18,0.00,,,0.00,0.0,meteohub,2013-05-01 07:53:00,
2013-05-01 00:58:00,68.4,23.2,29.78,NNE,20,6.0,6.0,18,0.00,,,0.00,0.0,meteohub,2013-05-01 07:58:00,
2013-05-01 01:03:00,68.7,23.5,29.78,NNW,346,7.0,7.0,18,0.00,,,0.00,0.0,meteohub,2013-05-01 08:03:00,
2013-05-01 01:08:00,68.9,22.3,29.78,WNW,284,4.0,11.0,17,0.00,,,0.00,0.0,meteohub,2013-05-01 08:08:00,
2013-05-01 01:13:00,68.7,23.5,29.78,East,96,2.0,11.0,18,0.00,,,0.00,0.0,meteohub,2013-05-01 08:13:00,
2013-05-01 01:18:00,69.1,22.5,29.78,NNE,20,4.0,11.0,17,0.00,,,0.00,0.0,meteohub,2013-05-01 08:18:00,
2013-05-01 01:23:00,69.6,21.4,29.78,NE,47,4.0,11.0,16,0.00,,,0.00,0.0,meteohub,2013-05-01 08:23:00,
2013-05-01 01:28:00,69.8,23.0,29.78,NE,38,5.0,14.0,17,0.00,,,0.00,0.0,meteohub,2013-05-01 08:28:00,
2013-05-01 01:33:00,70.0,21.7,29.78,WNW,298,3.0,14.0,16,0.00,,,0.00,0.0,meteohub,2013-05-01 08:33:00,
2013-05-01 01:38:00,70.0,21.7,29.78,SE,126,3.0,13.0,16,0.00,,,0.00,0.0,meteohub,2013-05-01 08:38:00,
2013-05-01 01:43:00,69.4,22.6,29.78,East,92,3.0,13.0,17,0.00,,,0.00,0.0,meteohub,2013-05-01 08:43:00,
2013-05-01 01:48:00,69.4,22.6,29.78,SSW,198,3.0,12.0,17,0.00,,,0.00,0.0,meteohub,2013-05-01 08:48:00,
2013-05-01 01:53:00,69.4,21.2,29.78,NNE,27,6.0,12.0,16,0.00,,,0.00,0.0,meteohub,2013-05-01 08:53:00,
2013-05-01 01:58:00,69.4,21.2,29.78,NNE,24,5.0,16.0,16,0.00,,,0.00,0.0,meteohub,2013-05-01 08:58:00,
2013-05-01 02:03:00,70.0,21.7,29.78,North,9,10.0,18.0,16,0.00,,,0.00,0.0,meteohub,2013-05-01 09:03:00,
2013-05-01 02:08:00,70.0,21.7,29.78,East,90,2.0,18.0,16,0.00,,,0.00,0.0,meteohub,2013-05-01 09:08:00,
2013-05-01 02:13:00,69.8,21.6,29.78,NE,36,6.0,18.0,16,0.00,,,0.00,0.0,meteohub,2013-05-01 09:13:00,
2013-05-01 02:18:00,69.8,21.6,29.78,East,88,4.0,16.0,16,0.00,,,0.00,0.0,meteohub,2013-05-01 09:18:00,
2013-05-01 02:23:00,69.6,21.4,29.78,East,83,3.0,18.0,16,0.00,,,0.00,0.0,meteohub,2013-05-01 09:23:00,
2013-05-01 02:28:00,69.4,21.2,29.78,East,84,6.0,18.0,16,0.00,,,0.00,0.0,meteohub,2013-05-01 09:28:00,
2013-05-01 02:33:00,69.6,21.4,29.78,East,94,7.0,18.0,16,0.00,,,0.00,0.0,meteohub,2013-05-01 09:33:00,
2013-05-01 02:38:00,69.8,21.6,29.78,North,355,5.0,18.0,16,0.00,,,0.00,0.0,meteohub,2013-05-01 09:38:00,
2013-05-01 02:43:00,69.4,22.6,29.78,ENE,71,0.0,19.0,17,0.00,,,0.00,0.0,meteohub,2013-05-01 09:43:00,
2013-05-01 02:48:00,69.3,22.6,29.78,NNE,12,5.0,19.0,17,0.00,,,0.00,0.0,meteohub,2013-05-01 09:48:00,
2013-05-01 02:53:00,69.1,21.0,29.79,East,82,4.0,16.0,16,0.00,,,0.00,0.0,meteohub,2013-05-01 09:53:00,
2013-05-01 02:59:00,69.1,21.0,29.79,South,180,2.0,16.0,16,0.00,,,0.00,0.0,meteohub,2013-05-01 09:59:00,
2013-05-01 03:03:00,68.7,22.1,29.78,NE,50,5.0,16.0,17,0.00,,,0.00,0.0,meteohub,2013-05-01 10:03:00,
2013-05-01 03:09:00,68.7,22.1,29.79,ENE,71,6.0,16.0,17,0.00,,,0.00,0.0,meteohub,2013-05-01 10:09:00,
2013-05-01 03:14:00,68.5,21.9,29.79,North,355,11.0,13.0,17,0.00,,,0.00,0.0,meteohub,2013-05-01 10:14:00,
2013-05-01 03:19:00,68.5,21.9,29.79,ESE,119,0.0,16.0,17,0.00,,,0.00,0.0,meteohub,2013-05-01 10:19:00,
2013-05-01 03:24:00,68.2,23.0,29.79,NE,53,5.0,20.0,18,0.00,,,0.00,0.0,meteohub,2013-05-01 10:24:00,
2013-05-01 03:29:00,68.4,23.2,29.79,NNE,33,3.0,20.0,18,0.00,,,0.00,0.0,meteohub,2013-05-01 10:29:00,
2013-05-01 03:34:00,68.0,22.8,29.79,NNE,17,6.0,20.0,18,0.00,,,0.00,0.0,meteohub,2013-05-01 10:34:00,
2013-05-01 03:39:00,68.0,22.8,29.80,NNE,17,2.0,12.0,18,0.00,,,0.00,0.0,meteohub,2013-05-01 10:39:00,
2013-05-01 03:44:00,68.0,22.8,29.80,NE,40,7.0,13.0,18,0.00,,,0.00,0.0,meteohub,2013-05-01 10:44:00,
2013-05-01 03:49:00,68.0,22.8,29.80,NNW,347,3.0,15.0,18,0.00,,,0.00,0.0,meteohub,2013-05-01 10:49:00,
2013-05-01 03:54:00,68.2,24.3,29.80,East,94,6.0,15.0,19,0.00,,,0.00,0.0,meteohub,2013-05-01 10:54:00,
2013-05-01 03:59:00,68.0,24.3,29.80,East,84,3.0,15.0,19,0.00,,,0.00,0.0,meteohub,2013-05-01 10:59:00,
2013-05-01 04:04:00,67.8,24.1,29.80,NE,35,5.0,12.0,19,0.00,,,0.00,0.0,meteohub,2013-05-01 11:04:00,
2013-05-01 04:09:00,67.6,25.2,29.80,ENE,69,5.0,13.0,20,0.00,,,0.00,0.0,meteohub,2013-05-01 11:09:00,
2013-05-01 04:14:00,67.5,25.0,29.80,ENE,59,7.0,17.0,20,0.00,,,0.00,0.0,meteohub,2013-05-01 11:14:00,
2013-05-01 04:19:00,66.9,25.7,29.81,NE,44,3.0,17.0,21,0.00,,,0.00,0.0,meteohub,2013-05-01 11:19:00,
2013-05-01 04:24:00,66.6,26.6,29.81,East,86,1.0,17.0,22,0.00,,,0.00,0.0,meteohub,2013-05-01 11:24:00,
2013-05-01 04:29:00,66.4,26.4,29.81,ENE,70,3.0,10.0,22,0.00,,,0.00,0.0,meteohub,2013-05-01 11:29:00,
2013-05-01 04:34:00,66.0,27.1,29.81,ENE,58,1.0,10.0,23,0.00,,,0.00,0.0,meteohub,2013-05-01 11:34:00,
2013-05-01 04:39:00,65.8,27.0,29.81,NE,45,0.0,10.0,23,0.00,,,0.00,0.0,meteohub,2013-05-01 11:39:00,
2013-05-01 04:44:00,65.3,26.6,29.81,NE,56,0.0,7.0,23,0.00,,,0.00,0.0,meteohub,2013-05-01 11:44:00,
2013-05-01 04:49:00,64.9,27.3,29.81,NNE,16,0.0,7.0,24,0.00,,,0.00,0.0,meteohub,2013-05-01 11:49:00,
2013-05-01 04:54:00,64.8,27.1,29.82,NNE,22,3.0,7.0,24,0.00,,,0.00,0.0,meteohub,2013-05-01 11:54:00,
2013-05-01 04:59:00,64.8,27.1,29.82,NNE,20,0.0,4.0,24,0.00,,,0.00,0.0,meteohub,2013-05-01 11:59:00,
2013-05-01 05:04:00,64.6,28.0,29.82,NNE,20,0.0,3.0,25,0.00,,,0.00,0.0,meteohub,2013-05-01 12:04:00,
2013-05-01 05:09:00,64.2,27.7,29.82,East,95,1.0,3.0,25,0.00,,,0.00,0.0,meteohub,2013-05-01 12:09:00,
2013-05-01 05:14:00,64.0,27.5,29.82,East,95,2.0,2.0,25,0.00,,,0.00,0.0,meteohub,2013-05-01 12:14:00,
2013-05-01 05:19:00,64.0,27.5,29.83,East,94,0.0,2.0,25,0.00,,,0.00,0.0,meteohub,2013-05-01 12:19:00,
2013-05-01 05:24:00,64.0,27.5,29.82,East,84,0.0,3.0,25,0.00,,,0.00,0.0,meteohub,2013-05-01 12:24:00,
2013-05-01 05:29:00,63.7,28.2,29.83,ESE,106,0.0,3.0,26,0.00,,,0.00,0.0,meteohub,2013-05-01 12:29:00,
2013-05-01 05:34:00,63.7,28.2,29.83,East,101,0.0,2.0,26,0.00,,,0.00,0.0,meteohub,2013-05-01 12:34:00,
2013-05-01 05:40:00,63.7,27.1,29.83,ESE,122,1.0,3.0,25,0.00,,,0.00,0.0,meteohub,2013-05-01 12:40:00,
2013-05-01 05:45:00,63.9,27.3,29.83,ESE,120,1.0,3.0,25,0.00,,,0.00,0.0,meteohub,2013-05-01 12:45:00,
2013-05-01 05:50:00,63.5,27.0,29.84,SSE,163,0.0,3.0,25,0.00,,,0.00,0.0,meteohub,2013-05-01 12:50:00,
2013-05-01 05:55:00,63.1,27.7,29.84,SSE,163,0.0,2.0,26,0.00,,,0.00,0.0,meteohub,2013-05-01 12:55:00,
2013-05-01 06:00:00,63.0,27.5,29.84,NNW,348,3.0,3.0,26,0.00,,,0.00,0.0,meteohub,2013-05-01 13:00:00,
2013-05-01 06:05:00,63.3,27.0,29.84,NE,36,2.0,3.0,25,0.00,,,0.00,0.0,meteohub,2013-05-01 13:05:00,
2013-05-01 06:10:00,63.7,26.2,29.84,NE,56,0.0,4.0,24,0.00,,,0.00,0.0,meteohub,2013-05-01 13:10:00,
2013-05-01 06:15:00,62.2,28.8,29.85,NE,56,0.0,4.0,28,0.00,,,0.00,7.0,meteohub,2013-05-01 13:15:00,
2013-05-01 06:20:00,61.3,27.9,29.85,NE,56,0.0,3.0,28,0.00,,,0.00,11.0,meteohub,2013-05-01 13:20:00,
2013-05-01 06:25:00,61.3,27.1,29.86,NE,55,1.0,3.0,27,0.00,,,0.00,14.0,meteohub,2013-05-01 13:25:00,
2013-05-01 06:30:00,61.7,26.4,29.86,NE,53,2.0,2.0,26,0.00,,,0.00,16.0,meteohub,2013-05-01 13:30:00,
2013-05-01 06:35:00,62.4,27.1,29.86,North,355,1.0,2.0,26,0.00,,,0.00,21.0,meteohub,2013-05-01 13:35:00,
2013-05-01 06:40:00,63.0,26.6,29.86,NNW,333,0.0,3.0,25,0.00,,,0.00,25.0,meteohub,2013-05-01 13:40:00,
2013-05-01 06:45:00,63.3,27.0,29.86,NNW,328,2.0,3.0,25,0.00,,,0.00,32.0,meteohub,2013-05-01 13:45:00,
2013-05-01 06:50:00,63.3,27.0,29.86,NNW,328,1.0,3.0,25,0.00,,,0.00,47.0,meteohub,2013-05-01 13:50:00,
2013-05-01 06:55:00,63.7,29.1,29.87,NNE,22,2.0,4.0,27,0.00,,,0.00,67.0,meteohub,2013-05-01 13:55:00,
2013-05-01 07:00:00,64.2,30.4,29.87,NNE,22,0.0,4.0,28,0.00,,,0.00,84.0,meteohub,2013-05-01 14:00:00,
2013-05-01 07:05:00,64.4,30.6,29.88,NE,44,1.0,4.0,28,0.00,,,0.00,102.0,meteohub,2013-05-01 14:05:00,
2013-05-01 07:10:00,64.6,30.7,29.88,NE,50,0.0,3.0,28,0.00,,,0.00,118.0,meteohub,2013-05-01 14:10:00,
2013-05-01 07:15:00,64.8,30.0,29.88,ENE,65,2.0,3.0,27,0.00,,,0.00,137.0,meteohub,2013-05-01 14:15:00,
2013-05-01 07:20:00,64.9,30.2,29.88,North,11,0.0,5.0,27,0.00,,,0.00,158.0,meteohub,2013-05-01 14:20:00,
2013-05-01 07:25:00,65.3,30.4,29.88,NW,325,1.0,5.0,27,0.00,,,0.00,181.0,meteohub,2013-05-01 14:25:00,
2013-05-01 07:30:00,65.7,29.8,29.88,ENE,71,3.0,5.0,26,0.00,,,0.00,200.0,meteohub,2013-05-01 14:30:00,
2013-05-01 07:35:00,65.8,30.0,29.88,ENE,63,3.0,5.0,26,0.00,,,0.00,220.0,meteohub,2013-05-01 14:35:00,
2013-05-01 07:40:00,66.0,30.2,29.88,NNE,33,2.0,5.0,26,0.00,,,0.00,234.0,meteohub,2013-05-01 14:40:00,
2013-05-01 07:45:00,66.2,30.4,29.88,North,5,6.0,10.0,26,0.00,,,0.00,253.0,meteohub,2013-05-01 14:45:00,
2013-05-01 07:50:00,66.6,28.6,29.89,NNE,30,1.0,10.0,24,0.00,,,0.00,271.0,meteohub,2013-05-01 14:50:00,
2013-05-01 07:55:00,66.7,28.8,29.89,NE,49,4.0,10.0,24,0.00,,,0.00,288.0,meteohub,2013-05-01 14:55:00,
2013-05-01 08:00:00,67.1,29.1,29.89,WNW,284,2.0,8.0,24,0.00,,,0.00,308.0,meteohub,2013-05-01 15:00:00,
2013-05-01 08:05:00,67.5,27.3,29.89,NNW,346,1.0,9.0,22,0.00,,,0.00,325.0,meteohub,2013-05-01 15:05:00,
2013-05-01 08:10:00,67.8,26.4,29.90,North,0,3.0,9.0,21,0.00,,,0.00,343.0,meteohub,2013-05-01 15:10:00,
2013-05-01 08:15:00,68.2,25.5,29.90,West,276,6.0,7.0,20,0.00,,,0.00,362.0,meteohub,2013-05-01 15:15:00,
2013-05-01 08:20:00,68.4,25.7,29.90,East,90,1.0,10.0,20,0.00,,,0.00,378.0,meteohub,2013-05-01 15:20:00,
2013-05-01 08:25:00,68.7,24.8,29.91,NNE,32,3.0,10.0,19,0.00,,,0.00,396.0,meteohub,2013-05-01 15:25:00,
2013-05-01 08:30:00,68.7,23.5,29.91,ENE,58,8.0,9.0,18,0.00,,,0.00,413.0,meteohub,2013-05-01 15:30:00,
2013-05-01 08:35:00,69.1,22.5,29.90,NNW,327,6.0,14.0,17,0.00,,,0.00,432.0,meteohub,2013-05-01 15:35:00,
2013-05-01 08:40:00,69.3,22.6,29.90,NNE,13,9.0,14.0,17,0.00,,,0.00,450.0,meteohub,2013-05-01 15:40:00,
2013-05-01 08:45:00,69.6,22.8,29.91,East,80,3.0,14.0,17,0.00,,,0.00,468.0,meteohub,2013-05-01 15:45:00,
2013-05-01 08:50:00,69.6,22.8,29.91,East,93,2.0,14.0,17,0.00,,,0.00,483.0,meteohub,2013-05-01 15:50:00,
2013-05-01 08:55:00,69.8,24.4,29.91,NE,38,3.0,14.0,18,0.00,,,0.00,497.0,meteohub,2013-05-01 15:55:00,
2013-05-01 09:00:00,70.2,26.1,29.91,East,96,1.0,14.0,19,0.00,,,0.00,515.0,meteohub,2013-05-01 16:00:00,
2013-05-01 09:05:00,70.3,24.8,29.91,ENE,64,0.0,12.0,18,0.00,,,0.00,531.0,meteohub,2013-05-01 16:05:00,
2013-05-01 09:10:00,70.3,24.8,29.92,NNE,21,6.0,14.0,18,0.00,,,0.00,550.0,meteohub,2013-05-01 16:10:00,
2013-05-01 09:15:00,70.0,24.4,29.92,NE,38,4.0,14.0,18,0.00,,,0.00,566.0,meteohub,2013-05-01 16:15:00,
2013-05-01 09:20:00,70.3,26.1,29.92,NE,49,5.0,14.0,19,0.00,,,0.00,582.0,meteohub,2013-05-01 16:20:00,
2013-05-01 09:25:00,70.3,24.8,29.92,ENE,66,9.0,13.0,18,0.00,,,0.00,594.0,meteohub,2013-05-01 16:25:00,
2013-05-01 09:30:00,71.2,22.8,29.92,NNW,346,2.0,12.0,16,0.00,,,0.00,612.0,meteohub,2013-05-01 16:30:00,
2013-05-01 09:35:00,70.9,23.9,29.92,NE,49,5.0,13.0,17,0.00,,,0.00,628.0,meteohub,2013-05-01 16:35:00,
2013-05-01 09:40:00,71.2,24.3,29.92,NE,52,6.0,13.0,17,0.00,,,0.00,643.0,meteohub,2013-05-01 16:40:00,
2013-05-01 09:45:00,71.4,24.3,29.92,North,5,3.0,13.0,17,0.00,,,0.00,659.0,meteohub,2013-05-01 16:45:00,
2013-05-01 09:50:00,71.4,22.8,29.92,NE,38,8.0,14.0,16,0.00,,,0.00,675.0,meteohub,2013-05-01 16:50:00,
2013-05-01 09:55:00,71.6,21.6,29.92,East,84,2.0,15.0,15,0.00,,,0.00,687.0,meteohub,2013-05-01 16:55:00,
2013-05-01 10:00:00,72.3,22.1,29.93,NNE,26,12.0,15.0,15,0.00,,,0.00,700.0,meteohub,2013-05-01 17:00:00,
2013-05-01 10:05:00,72.0,21.7,29.92,ENE,63,2.0,15.0,15,0.00,,,0.00,714.0,meteohub,2013-05-01 17:05:00,
2013-05-01 10:10:00,72.1,21.9,29.92,NE,49,5.0,13.0,15,0.00,,,0.00,728.0,meteohub,2013-05-01 17:10:00,
2013-05-01 10:15:00,72.1,20.3,29.92,NNE,22,11.0,13.0,14,0.00,,,0.00,742.0,meteohub,2013-05-01 17:15:00,
2013-05-01 10:20:00,72.7,20.7,29.92,NE,42,3.0,14.0,14,0.00,,,0.00,756.0,meteohub,2013-05-01 17:20:00,
2013-05-01 10:25:00,72.9,20.8,29.92,NNW,338,2.0,14.0,14,0.00,,,0.00,770.0,meteohub,2013-05-01 17:25:00,
2013-05-01 10:30:00,73.8,21.6,29.92,NE,41,4.0,14.0,14,0.00,,,0.00,782.0,meteohub,2013-05-01 17:30:00,
2013-05-01 10:35:00,73.8,21.6,29.93,North,349,4.0,12.0,14,0.00,,,0.00,791.0,meteohub,2013-05-01 17:35:00,
2013-05-01 10:40:00,73.6,21.4,29.93,NNW,329,1.0,11.0,14,0.00,,,0.00,802.0,meteohub,2013-05-01 17:40:00,
2013-05-01 10:45:00,73.9,21.7,29.93,ESE,111,2.0,11.0,14,0.00,,,0.00,814.0,meteohub,2013-05-01 17:45:00,
2013-05-01 10:50:00,73.9,21.7,29.93,NNE,15,4.0,11.0,14,0.00,,,0.00,823.0,meteohub,2013-05-01 17:50:00,
2013-05-01 10:55:00,74.1,21.9,29.93,NE,49,1.0,11.0,14,0.00,,,0.00,835.0,meteohub,2013-05-01 17:55:00,
2013-05-01 11:00:00,74.5,22.1,29.93,NNW,331,4.0,11.0,14,0.00,,,0.00,846.0,meteohub,2013-05-01 18:00:00,
2013-05-01 11:05:00,75.2,21.0,29.93,NNE,25,2.0,11.0,13,0.00,,,0.00,856.0,meteohub,2013-05-01 18:05:00,
2013-05-01 11:10:00,74.5,20.5,29.94,NE,49,7.0,12.0,13,0.00,,,0.00,865.0,meteohub,2013-05-01 18:10:00,
2013-05-01 11:15:00,74.8,20.7,29.93,North,10,4.0,12.0,13,0.00,,,0.00,875.0,meteohub,2013-05-01 18:15:00,
2013-05-01 11:20:00,74.7,20.5,29.94,NNE,32,5.0,12.0,13,0.00,,,0.00,884.0,meteohub,2013-05-01 18:20:00,
2013-05-01 11:25:00,75.4,26.1,29.94,WNW,302,0.0,12.0,16,0.00,,,0.00,891.0,meteohub,2013-05-01 18:25:00,
2013-05-01 11:30:00,75.6,26.2,29.94,ENE,57,2.0,12.0,16,0.00,,,0.00,900.0,meteohub,2013-05-01 18:30:00,
2013-05-01 11:35:00,76.5,28.4,29.94,NNE,25,2.0,12.0,17,0.00,,,0.00,911.0,meteohub,2013-05-01 18:35:00,
2013-05-01 11:40:00,77.5,26.2,29.94,SSE,165,2.0,11.0,15,0.00,,,0.00,914.0,meteohub,2013-05-01 18:40:00,
2013-05-01 11:45:00,76.8,35.1,29.94,NW,317,2.0,11.0,22,0.00,,,0.00,926.0,meteohub,2013-05-01 18:45:00,
2013-05-01 11:50:00,75.7,36.3,29.94,NW,311,6.0,11.0,24,0.00,,,0.00,928.0,meteohub,2013-05-01 18:50:00,
2013-05-01 11:55:00,75.7,35.2,29.94,North,5,3.0,11.0,23,0.00,,,0.00,933.0,meteohub,2013-05-01 18:55:00,
2013-05-01 12:00:00,75.9,33.3,29.94,NNW,340,4.0,12.0,21,0.00,,,0.00,939.0,meteohub,2013-05-01 19:00:00,
2013-05-01 12:05:00,75.6,45.1,29.94,West,278,7.0,12.0,34,0.00,,,0.00,946.0,meteohub,2013-05-01 19:05:00,
2013-05-01 12:10:00,73.9,46.0,29.94,West,279,6.0,13.0,37,0.00,,,0.00,949.0,meteohub,2013-05-01 19:10:00,
2013-05-01 12:15:00,74.8,39.6,29.94,North,355,4.0,13.0,28,0.00,,,0.00,953.0,meteohub,2013-05-01 19:15:00,
2013-05-01 12:20:00,75.2,33.8,29.94,ENE,62,0.0,13.0,22,0.00,,,0.00,960.0,meteohub,2013-05-01 19:20:00,
2013-05-01 12:25:00,73.4,46.2,29.94,WNW,303,9.0,11.0,38,0.00,,,0.00,958.0,meteohub,2013-05-01 19:25:00,
2013-05-01 12:30:00,69.3,46.9,29.95,West,264,10.0,12.0,45,0.00,,,0.00,962.0,meteohub,2013-05-01 19:30:00,
2013-05-01 12:35:00,66.6,46.8,29.95,WSW,244,5.0,15.0,49,0.00,,,0.00,969.0,meteohub,2013-05-01 19:35:00,
2013-05-01 12:40:00,65.7,47.5,29.95,WSW,248,3.0,15.0,52,0.00,,,0.00,965.0,meteohub,2013-05-01 19:40:00,
2013-05-01 12:45:00,67.3,47.5,29.95,SW,230,13.0,15.0,49,0.00,,,0.00,967.0,meteohub,2013-05-01 19:45:00,
2013-05-01 12:50:00,66.7,47.5,29.95,WSW,246,16.0,18.0,50,0.00,,,0.00,965.0,meteohub,2013-05-01 19:50:00,
2013-05-01 12:55:00,63.7,47.7,29.96,WSW,257,2.0,22.0,56,0.00,,,0.00,965.0,meteohub,2013-05-01 19:55:00,
2013-05-01 13:00:00,63.7,48.2,29.96,SW,236,7.0,22.0,57,0.00,,,0.00,969.0,meteohub,2013-05-01 20:00:00,
2013-05-01 13:05:00,65.5,48.4,29.96,SW,218,6.0,22.0,54,0.00,,,0.00,970.0,meteohub,2013-05-01 20:05:00,
2013-05-01 13:10:00,65.8,48.2,29.96,West,268,11.0,13.0,53,0.00,,,0.00,970.0,meteohub,2013-05-01 20:10:00,
2013-05-01 13:15:00,65.3,48.2,29.96,West,271,12.0,13.0,54,0.00,,,0.00,969.0,meteohub,2013-05-01 20:15:00,
2013-05-01 13:20:00,65.3,49.3,29.96,WNW,296,4.0,14.0,56,0.00,,,0.00,969.0,meteohub,2013-05-01 20:20:00,
2013-05-01 13:25:00,64.8,48.7,29.96,SSW,197,8.0,15.0,56,0.00,,,0.00,965.0,meteohub,2013-05-01 20:25:00,
2013-05-01 13:30:00,63.9,48.7,29.96,WNW,290,6.0,20.0,58,0.00,,,0.00,965.0,meteohub,2013-05-01 20:30:00,
2013-05-01 13:35:00,63.7,48.6,29.96,WNW,295,11.0,20.0,58,0.00,,,0.00,962.0,meteohub,2013-05-01 20:35:00,
2013-05-01 13:40:00,64.8,49.6,29.96,SW,235,4.0,20.0,58,0.00,,,0.00,958.0,meteohub,2013-05-01 20:40:00,
2013-05-01 13:45:00,66.4,50.2,29.96,West,261,4.0,15.0,56,0.00,,,0.00,954.0,meteohub,2013-05-01 20:45:00,
2013-05-01 13:50:00,65.8,49.3,29.96,WNW,300,6.0,12.0,55,0.00,,,0.00,951.0,meteohub,2013-05-01 20:50:00,
2013-05-01 13:55:00,65.1,49.1,29.96,WSW,242,10.0,12.0,56,0.00,,,0.00,947.0,meteohub,2013-05-01 20:55:00,
2013-05-01 14:00:00,64.0,48.6,29.96,West,271,7.0,15.0,57,0.00,,,0.00,944.0,meteohub,2013-05-01 21:00:00,
2013-05-01 14:05:00,64.9,49.3,29.96,WSW,252,9.0,15.0,57,0.00,,,0.00,935.0,meteohub,2013-05-01 21:05:00,
2013-05-01 14:10:00,64.4,48.9,29.96,WNW,282,4.0,15.0,57,0.00,,,0.00,933.0,meteohub,2013-05-01 21:10:00,
2013-05-01 14:15:00,63.9,48.7,29.96,NW,319,5.0,16.0,58,0.00,,,0.00,928.0,meteohub,2013-05-01 21:15:00,
2013-05-01 14:20:00,63.9,49.3,29.96,NNW,330,5.0,16.0,59,0.00,,,0.00,923.0,meteohub,2013-05-01 21:20:00,
2013-05-01 14:25:00,63.3,48.7,29.96,SSW,212,4.0,16.0,59,0.00,,,0.00,914.0,meteohub,2013-05-01 21:25:00,
2013-05-01 14:30:00,63.3,48.7,29.96,West,271,6.0,16.0,59,0.00,,,0.00,905.0,meteohub,2013-05-01 21:30:00,
2013-05-01 14:35:00,63.7,49.5,29.96,West,268,7.0,16.0,60,0.00,,,0.00,896.0,meteohub,2013-05-01 21:35:00,
2013-05-01 14:40:00,64.2,49.6,29.96,SSW,211,7.0,16.0,59,0.00,,,0.00,891.0,meteohub,2013-05-01 21:40:00,
2013-05-01 14:45:00,64.2,49.6,29.96,West,268,7.0,14.0,59,0.00,,,0.00,884.0,meteohub,2013-05-01 21:45:00,
2013-05-01 14:50:00,64.0,49.8,29.96,WSW,250,3.0,14.0,60,0.00,,,0.00,875.0,meteohub,2013-05-01 21:50:00,
2013-05-01 14:55:00,63.3,49.6,29.96,West,261,4.0,14.0,61,0.00,,,0.00,863.0,meteohub,2013-05-01 21:55:00,
2013-05-01 15:00:00,63.3,49.6,29.96,SW,235,14.0,14.0,61,0.00,,,0.00,854.0,meteohub,2013-05-01 22:00:00,
2013-05-01 15:05:00,63.3,50.5,29.96,West,263,11.0,16.0,63,0.00,,,0.00,851.0,meteohub,2013-05-01 22:05:00,
2013-05-01 15:10:00,63.9,50.2,29.96,WNW,292,6.0,16.0,61,0.00,,,0.00,835.0,meteohub,2013-05-01 22:10:00,
2013-05-01 15:15:00,63.7,50.0,29.96,SW,232,13.0,16.0,61,0.00,,,0.00,824.0,meteohub,2013-05-01 22:15:00,
2013-05-01 15:20:00,63.1,50.4,29.96,West,269,4.0,17.0,63,0.00,,,0.00,816.0,meteohub,2013-05-01 22:20:00,
2013-05-01 15:25:00,63.9,50.2,29.96,SW,234,6.0,17.0,61,0.00,,,0.00,805.0,meteohub,2013-05-01 22:25:00,
2013-05-01 15:30:00,63.9,50.2,29.96,North,355,4.0,17.0,61,0.00,,,0.00,796.0,meteohub,2013-05-01 22:30:00,
2013-05-01 15:35:00,63.1,49.8,29.96,SW,232,5.0,16.0,62,0.00,,,0.00,782.0,meteohub,2013-05-01 22:35:00,
2013-05-01 15:40:00,62.8,49.6,29.96,West,260,9.0,16.0,62,0.00,,,0.00,773.0,meteohub,2013-05-01 22:40:00,
2013-05-01 15:45:00,63.5,49.8,29.96,SW,218,7.0,16.0,61,0.00,,,0.00,758.0,meteohub,2013-05-01 22:45:00,
2013-05-01 15:50:00,63.1,49.8,29.95,SW,224,10.0,16.0,62,0.00,,,0.00,745.0,meteohub,2013-05-01 22:50:00,
2013-05-01 15:55:00,63.3,50.0,29.95,WNW,284,9.0,15.0,62,0.00,,,0.00,731.0,meteohub,2013-05-01 22:55:00,
2013-05-01 16:00:00,64.0,50.4,29.95,WNW,297,6.0,15.0,61,0.00,,,0.00,719.0,meteohub,2013-05-01 23:00:00,
2013-05-01 16:05:00,63.1,50.4,29.95,WSW,239,2.0,12.0,63,0.00,,,0.00,708.0,meteohub,2013-05-01 23:05:00,
2013-05-01 16:10:00,63.0,50.2,29.95,SW,236,6.0,14.0,63,0.00,,,0.00,696.0,meteohub,2013-05-01 23:10:00,
2013-05-01 16:15:00,61.5,50.0,29.96,WSW,252,5.0,14.0,66,0.00,,,0.00,680.0,meteohub,2013-05-01 23:15:00,
2013-05-01 16:20:00,62.1,50.2,29.95,West,261,3.0,14.0,65,0.00,,,0.00,668.0,meteohub,2013-05-01 23:20:00,
2013-05-01 16:25:00,62.2,50.4,29.95,WSW,250,9.0,14.0,65,0.00,,,0.00,650.0,meteohub,2013-05-01 23:25:00,
2013-05-01 16:31:00,61.3,50.4,29.95,WSW,240,8.0,17.0,67,0.00,,,0.00,635.0,meteohub,2013-05-01 23:31:00,
2013-05-01 16:36:00,61.9,50.4,29.95,West,280,2.0,17.0,66,0.00,,,0.00,619.0,meteohub,2013-05-01 23:36:00,
2013-05-01 16:41:00,61.7,50.2,29.95,SW,225,6.0,17.0,66,0.00,,,0.00,606.0,meteohub,2013-05-01 23:41:00,
2013-05-01 16:46:00,61.7,50.2,29.95,SW,230,11.0,15.0,66,0.00,,,0.00,589.0,meteohub,2013-05-01 23:46:00,
2013-05-01 16:51:00,61.9,50.4,29.95,SW,221,6.0,15.0,66,0.00,,,0.00,577.0,meteohub,2013-05-01 23:51:00,
2013-05-01 16:56:00,61.9,50.4,29.95,West,265,1.0,13.0,66,0.00,,,0.00,559.0,meteohub,2013-05-01 23:56:00,
2013-05-01 17:01:00,62.4,50.0,29.95,West,277,5.0,13.0,64,0.00,,,0.00,540.0,meteohub,2013-05-02 00:01:00,
2013-05-01 17:06:00,62.1,50.2,29.95,WSW,250,5.0,14.0,65,0.00,,,0.00,524.0,meteohub,2013-05-02 00:06:00,
2013-05-01 17:11:00,62.4,50.5,29.95,SW,227,9.0,14.0,65,0.00,,,0.00,510.0,meteohub,2013-05-02 00:11:00,
2013-05-01 17:16:00,61.9,50.0,29.95,SW,215,9.0,14.0,65,0.00,,,0.00,490.0,meteohub,2013-05-02 00:16:00,
2013-05-01 17:21:00,61.5,50.0,29.95,SW,229,11.0,14.0,66,0.00,,,0.00,475.0,meteohub,2013-05-02 00:21:00,
2013-05-01 17:26:00,61.5,50.0,29.96,SW,236,12.0,14.0,66,0.00,,,0.00,457.0,meteohub,2013-05-02 00:26:00,
2013-05-01 17:31:00,61.2,50.2,29.96,SW,234,12.0,15.0,67,0.00,,,0.00,443.0,meteohub,2013-05-02 00:31:00,
2013-05-01 17:36:00,60.6,50.0,29.96,SW,219,9.0,15.0,68,0.00,,,0.00,422.0,meteohub,2013-05-02 00:36:00,
2013-05-01 17:41:00,60.3,50.0,29.96,SW,232,11.0,17.0,69,0.00,,,0.00,406.0,meteohub,2013-05-02 00:41:00,
2013-05-01 17:46:00,59.5,49.8,29.96,WSW,244,4.0,17.0,70,0.00,,,0.00,387.0,meteohub,2013-05-02 00:46:00,
2013-05-01 17:51:00,59.2,49.5,29.96,West,261,9.0,17.0,70,0.00,,,0.00,367.0,meteohub,2013-05-02 00:51:00,
2013-05-01 17:56:00,58.6,49.6,29.97,WNW,284,5.0,17.0,72,0.00,,,0.00,352.0,meteohub,2013-05-02 00:56:00,
2013-05-01 18:01:00,58.8,49.8,29.97,WSW,238,3.0,15.0,72,0.00,,,0.00,332.0,meteohub,2013-05-02 01:01:00,
2013-05-01 18:06:00,58.5,49.5,29.97,WSW,246,6.0,15.0,72,0.00,,,0.00,316.0,meteohub,2013-05-02 01:06:00,
2013-05-01 18:11:00,57.7,49.5,29.97,WSW,237,4.0,14.0,74,0.00,,,0.00,301.0,meteohub,2013-05-02 01:11:00,
2013-05-01 18:16:00,57.9,49.6,29.96,West,271,7.0,14.0,74,0.00,,,0.00,285.0,meteohub,2013-05-02 01:16:00,
2013-05-01 18:21:00,57.9,50.0,29.97,SW,225,5.0,14.0,75,0.00,,,0.00,265.0,meteohub,2013-05-02 01:21:00,
2013-05-01 18:26:00,57.7,50.2,29.96,WNW,287,4.0,14.0,76,0.00,,,0.00,246.0,meteohub,2013-05-02 01:26:00,
2013-05-01 18:31:00,57.4,49.8,29.97,SW,234,3.0,14.0,76,0.00,,,0.00,225.0,meteohub,2013-05-02 01:31:00,
2013-05-01 18:36:00,57.4,49.8,29.96,WNW,284,10.0,14.0,76,0.00,,,0.00,202.0,meteohub,2013-05-02 01:36:00,
2013-05-01 18:41:00,57.0,49.5,29.97,WSW,252,5.0,16.0,76,0.00,,,0.00,183.0,meteohub,2013-05-02 01:41:00,
2013-05-01 18:46:00,56.8,49.6,29.97,ENE,70,3.0,16.0,77,0.00,,,0.00,162.0,meteohub,2013-05-02 01:46:00,
2013-05-01 18:51:00,56.5,49.6,29.97,West,271,6.0,16.0,78,0.00,,,0.00,142.0,meteohub,2013-05-02 01:51:00,
2013-05-01 18:56:00,56.1,49.6,29.97,NW,307,6.0,14.0,79,0.00,,,0.00,127.0,meteohub,2013-05-02 01:56:00,
2013-05-01 19:01:00,56.1,49.6,29.97,NNW,329,4.0,16.0,79,0.00,,,0.00,109.0,meteohub,2013-05-02 02:01:00,
2013-05-01 19:06:00,55.8,49.6,29.97,NW,305,5.0,16.0,80,0.00,,,0.00,91.0,meteohub,2013-05-02 02:06:00,
2013-05-01 19:11:00,55.4,49.6,29.97,West,276,7.0,16.0,81,0.00,,,0.00,77.0,meteohub,2013-05-02 02:11:00,
2013-05-01 19:16:00,55.0,49.3,29.97,NW,325,3.0,16.0,81,0.00,,,0.00,62.0,meteohub,2013-05-02 02:16:00,
2013-05-01 19:21:00,54.9,49.5,29.97,SW,236,4.0,16.0,82,0.00,,,0.00,49.0,meteohub,2013-05-02 02:21:00,
2013-05-01 19:26:00,54.5,49.5,29.97,WSW,256,3.0,16.0,83,0.00,,,0.00,33.0,meteohub,2013-05-02 02:26:00,
2013-05-01 19:31:00,54.1,49.1,29.98,SE,138,2.0,16.0,83,0.00,,,0.00,28.0,meteohub,2013-05-02 02:31:00,
2013-05-01 19:36:00,54.1,49.5,29.98,SW,228,3.0,13.0,84,0.00,,,0.00,25.0,meteohub,2013-05-02 02:36:00,
2013-05-01 19:41:00,54.0,49.6,29.98,WSW,245,1.0,16.0,85,0.00,,,0.00,19.0,meteohub,2013-05-02 02:41:00,
2013-05-01 19:46:00,53.8,49.5,29.98,WNW,284,10.0,16.0,85,0.00,,,0.00,16.0,meteohub,2013-05-02 02:46:00,
2013-05-01 19:51:00,53.8,49.5,29.98,WNW,283,4.0,15.0,85,0.00,,,0.00,12.0,meteohub,2013-05-02 02:51:00,
2013-05-01 19:56:00,53.6,49.5,29.99,West,266,7.0,15.0,86,0.00,,,0.00,9.0,meteohub,2013-05-02 02:56:00,
2013-05-01 20:01:00,53.4,49.3,29.99,WSW,257,7.0,14.0,86,0.00,,,0.00,5.0,meteohub,2013-05-02 03:01:00,
2013-05-01 20:06:00,53.2,49.1,29.99,WNW,289,6.0,14.0,86,0.00,,,0.00,0.0,meteohub,2013-05-02 03:06:00,
2013-05-01 20:11:00,53.2,49.1,29.99,West,265,6.0,13.0,86,0.00,,,0.00,0.0,meteohub,2013-05-02 03:11:00,
2013-05-01 20:16:00,53.1,49.3,29.99,SW,226,3.0,13.0,87,0.00,,,0.00,0.0,meteohub,2013-05-02 03:16:00,
2013-05-01 20:21:00,53.1,49.3,29.99,West,273,1.0,12.0,87,0.00,,,0.00,0.0,meteohub,2013-05-02 03:21:00,
2013-05-01 20:26:00,53.1,49.3,29.99,WSW,250,3.0,13.0,87,0.00,,,0.00,0.0,meteohub,2013-05-02 03:26:00,
2013-05-01 20:31:00,53.1,49.3,29.99,WSW,238,7.0,13.0,87,0.00,,,0.00,0.0,meteohub,2013-05-02 03:31:00,
2013-05-01 20:36:00,53.1,49.3,29.99,WSW,240,2.0,11.0,87,0.00,,,0.00,0.0,meteohub,2013-05-02 03:36:00,
2013-05-01 20:41:00,53.1,49.3,29.99,West,263,5.0,11.0,87,0.00,,,0.00,0.0,meteohub,2013-05-02 03:41:00,
2013-05-01 20:46:00,52.9,49.1,29.99,West,263,3.0,11.0,87,0.00,,,0.00,0.0,meteohub,2013-05-02 03:46:00,
2013-05-01 20:51:00,52.9,49.1,29.99,SSW,194,5.0,11.0,87,0.00,,,0.00,0.0,meteohub,2013-05-02 03:51:00,
2013-05-01 20:56:00,52.9,49.1,29.99,WNW,294,2.0,10.0,87,0.00,,,0.00,0.0,meteohub,2013-05-02 03:56:00,
2013-05-01 21:01:00,52.9,49.1,29.99,WSW,242,7.0,10.0,87,0.00,,,0.00,0.0,meteohub,2013-05-02 04:01:00,
2013-05-01 21:02:00,52.9,49.1,29.99,WSW,247,2.0,10.0,87,0.00,,,0.00,0.0,meteohub,2013-05-02 04:02:00,
2013-05-01 21:07:00,52.9,49.1,30.00,WNW,289,2.0,11.0,87,0.00,,,0.00,0.0,meteohub,2013-05-02 04:07:00,
2013-05-01 21:12:00,52.9,49.1,30.00,West,281,3.0,11.0,87,0.00,,,0.00,0.0,meteohub,2013-05-02 04:12:00,
2013-05-01 21:17:00,52.9,48.7,30.00,WSW,244,2.0,12.0,86,0.00,,,0.00,0.0,meteohub,2013-05-02 04:17:00,
2013-05-01 21:22:00,52.9,48.7,30.00,WSW,249,3.0,12.0,86,0.00,,,0.00,0.0,meteohub,2013-05-02 04:22:00,
2013-05-01 21:27:00,53.1,48.9,30.00,West,280,5.0,12.0,86,0.00,,,0.00,0.0,meteohub,2013-05-02 04:27:00,
2013-05-01 21:32:00,53.2,48.6,30.00,WNW,301,3.0,11.0,84,0.00,,,0.00,0.0,meteohub,2013-05-02 04:32:00,
2013-05-01 21:37:00,53.4,48.4,30.00,West,261,3.0,11.0,83,0.00,,,0.00,0.0,meteohub,2013-05-02 04:37:00,
2013-05-01 21:42:00,53.8,48.7,30.00,NNW,343,0.0,11.0,83,0.00,,,0.00,0.0,meteohub,2013-05-02 04:42:00,
2013-05-01 21:47:00,54.0,48.2,30.00,WSW,239,1.0,6.0,81,0.00,,,0.00,0.0,meteohub,2013-05-02 04:47:00,
2013-05-01 21:52:00,54.1,48.0,30.01,WNW,297,0.0,6.0,80,0.00,,,0.00,0.0,meteohub,2013-05-02 04:52:00,
2013-05-01 21:57:00,54.3,48.2,30.01,West,265,3.0,7.0,80,0.00,,,0.00,0.0,meteohub,2013-05-02 04:57:00,
2013-05-01 22:02:00,54.3,48.0,30.01,South,185,0.0,7.0,79,0.00,,,0.00,0.0,meteohub,2013-05-02 05:02:00,
2013-05-01 22:07:00,54.7,48.0,30.00,SW,223,2.0,3.0,78,0.00,,,0.00,0.0,meteohub,2013-05-02 05:07:00,
2013-05-01 22:12:00,54.7,47.7,30.00,SSW,205,2.0,4.0,77,0.00,,,0.00,0.0,meteohub,2013-05-02 05:12:00,
2013-05-01 22:17:00,54.9,47.8,30.00,WSW,238,0.0,4.0,77,0.00,,,0.00,0.0,meteohub,2013-05-02 05:17:00,
2013-05-01 22:22:00,54.9,47.8,30.00,SW,214,0.0,4.0,77,0.00,,,0.00,0.0,meteohub,2013-05-02 05:22:00,
2013-05-01 22:27:00,55.0,47.7,30.00,WSW,242,1.0,4.0,76,0.00,,,0.00,0.0,meteohub,2013-05-02 05:27:00,
2013-05-01 22:32:00,55.0,47.3,30.01,West,272,2.0,5.0,75,0.00,,,0.00,0.0,meteohub,2013-05-02 05:32:00,
2013-05-01 22:37:00,55.2,47.8,30.01,SW,232,1.0,5.0,76,0.00,,,0.00,0.0,meteohub,2013-05-02 05:37:00,
2013-05-01 22:42:00,55.0,47.7,30.01,SW,230,1.0,5.0,76,0.00,,,0.00,0.0,meteohub,2013-05-02 05:42:00,
2013-05-01 22:47:00,55.0,47.3,30.01,SW,234,0.0,4.0,75,0.00,,,0.00,0.0,meteohub,2013-05-02 05:47:00,
2013-05-01 22:52:00,55.2,47.5,30.01,SSW,202,1.0,4.0,75,0.00,,,0.00,0.0,meteohub,2013-05-02 05:52:00,
2013-05-01 22:57:00,55.0,47.7,30.01,SW,215,0.0,5.0,76,0.00,,,0.00,0.0,meteohub,2013-05-02 05:57:00,
2013-05-01 23:02:00,54.9,47.5,30.01,NW,318,0.0,5.0,76,0.00,,,0.00,0.0,meteohub,2013-05-02 06:02:00,
2013-05-01 23:07:00,54.7,47.3,30.01,WNW,292,0.0,4.0,76,0.00,,,0.00,0.0,meteohub,2013-05-02 06:07:00,
2013-05-01 23:12:00,54.9,47.1,30.01,WSW,244,0.0,4.0,75,0.00,,,0.00,0.0,meteohub,2013-05-02 06:12:00,
2013-05-01 23:17:00,55.0,46.9,30.01,WSW,244,0.0,4.0,74,0.00,,,0.00,0.0,meteohub,2013-05-02 06:17:00,
2013-05-01 23:22:00,55.0,47.3,30.01,WSW,246,0.0,4.0,75,0.00,,,0.00,0.0,meteohub,2013-05-02 06:22:00,
2013-05-01 23:27:00,54.9,47.5,30.01,WSW,246,0.0,3.0,76,0.00,,,0.00,0.0,meteohub,2013-05-02 06:27:00,
2013-05-01 23:32:00,54.7,47.7,30.01,WSW,246,0.0,3.0,77,0.00,,,0.00,0.0,meteohub,2013-05-02 06:32:00,
2013-05-01 23:37:00,54.3,47.3,30.01,WSW,246,0.0,1.0,77,0.00,,,0.00,0.0,meteohub,2013-05-02 06:37:00,
2013-05-01 23:42:00,54.3,47.3,30.01,WSW,246,0.0,1.0,77,0.00,,,0.00,0.0,meteohub,2013-05-02 06:42:00,
2013-05-01 23:47:00,54.3,47.3,30.01,WSW,246,0.0,2.0,77,0.00,,,0.00,0.0,meteohub,2013-05-02 06:47:00,
2013-05-01 23:52:00,54.3,46.6,30.01,WSW,246,0.0,2.0,75,0.00,,,0.00,0.0,meteohub,2013-05-02 06:52:00,
2013-05-01 23:57:00,54.3,46.9,30.01,WSW,246,0.0,2.0,76,0.00,,,0.00,0.0,meteohub,2013-05-02 06:57:00,